FW3609 Weather Reports


Display with metric or nautical units.
time (UTC)temp
F
wind
direction
speed
MPH
gust
MPH
rain 1hr
in
rain 24hr
in
rain mn
in
humidity
%
barometer
mb
20211208140224 36 133 0.0 2.0 0.00 0.00 0.00 69 1019.6
20211208134653 37 109 0.0 0.0 0.00 0.00 0.00 71 1019.8
20211208133122 36 103 0.0 0.0 0.00 0.00 0.00 69 1019.8
20211208131607 36 69 0.0 2.0 0.00 0.00 0.00 69 1019.9
20211208130128 36 82 0.0 2.0 0.00 0.00 0.00 68 1020.0
20211208124613 36 78 0.0 3.0 0.00 0.00 0.00 68 1020.4
20211208123054 36 115 1.0 4.0 0.00 0.00 0.00 67 1020.4
20211208121626 36 96 0.0 0.0 0.00 0.00 0.00 66 1020.6
20211208120009 36 98 0.0 0.0 0.00 0.00 0.00 66 1020.5
20211208113111 35 100 0.0 0.0 0.00 0.00 0.00 66 1020.8
20211208111602 36 116 0.0 0.0 0.00 0.00 0.00 66 1020.5
20211208110141 35 43 0.0 0.0 0.00 0.00 0.00 66 1020.4
20211208104642 36 42 0.0 0.0 0.00 0.00 0.00 70 1020.5
20211208103038 35 27 0.0 0.0 0.00 0.00 0.00 67 1020.7
20211208101517 35 3 0.0 0.0 0.00 0.00 0.00 67 1020.7
20211208100109 35 2 0.0 0.0 0.00 0.00 0.00 68 1020.8
20211208094637 35 40 0.0 0.0 0.00 0.00 0.00 68 1020.7
20211208093031 35 13 0.0 0.0 0.00 0.00 0.00 68 1021.0
20211208091540 35 88 0.0 0.0 0.00 0.00 0.00 68 1020.9
20211208090131 35 91 0.0 2.0 0.00 0.00 0.00 68 1020.7
20211208084601 34 83 0.0 0.0 0.00 0.00 0.00 68 1020.8
20211208083019 34 83 0.0 0.0 0.00 0.00 0.00 68 1020.9
20211208081506 34 94 0.0 0.0 0.00 0.00 0.00 68 1021.2
20211208080051 34 75 0.0 0.0 0.00 0.00 0.00 69 1021.5
20211208074609 33 75 0.0 0.0 0.00 0.00 0.00 69 1021.8
20211208071627 33 67 0.0 0.0 0.00 0.00 0.00 69 1021.9
20211208070112 33 67 0.0 0.0 0.00 0.00 0.00 69 1021.9
20211208064532 33 67 0.0 0.0 0.00 0.00 0.00 67 1021.9
20211208063005 33 67 0.0 1.0 0.00 0.00 0.00 66 1021.6
20211208061603 33 24 0.0 1.0 0.00 0.00 0.00 66 1021.6
20211208060045 33 91 0.0 1.0 0.00 0.00 0.00 65 1021.8
20211208054517 33 20 0.0 1.0 0.00 0.00 0.00 65 1021.5
20211208051608 31 288 0.0 0.0 0.00 0.00 0.00 73 1022.7
20211208050015 30 288 0.0 0.0 0.00 0.00 0.00 73 1023.0
20211208044504 30 288 0.0 0.0 0.00 0.00 0.00 74 1023.6
20211208043116 29 288 0.0 0.0 0.00 0.00 0.00 74 1023.5
20211208041621 29 288 0.0 0.0 0.00 0.00 0.00 74 1023.6
20211208040015 29 289 0.0 0.0 0.00 0.00 0.00 73 1023.7
20211208034505 29 288 0.0 0.0 0.00 0.00 0.00 71 1023.7
20211208031830 30 288 0.0 0.0 0.00 0.00 0.00 69 1024.0
20211208030052 31 288 0.0 0.0 0.00 0.00 0.00 68 1024.0
20211208024504 31 289 0.0 0.0 0.00 0.00 0.00 66 1024.0
20211208023052 31 288 0.0 0.0 0.00 0.00 0.00 66 1023.7
20211208021604 32 288 0.0 0.0 0.00 0.00 0.00 65 1023.9
20211208014741 32 288 0.0 0.0 0.00 0.00 0.00 65 1024.1
20211208013116 32 288 0.0 0.0 0.00 0.00 0.00 64 1024.3
20211208011548 32 288 0.0 0.0 0.00 0.00 0.00 65 1024.3
20211208010010 32 288 0.0 0.0 0.00 0.00 0.00 63 1024.4
20211208003202 33 289 0.0 0.0 0.00 0.00 0.00 61 1024.5
20211208001621 33 288 0.0 0.0 0.00 0.00 0.00 60 1024.6
20211208000015 33 288 0.0 0.0 0.00 0.00 0.00 58 1024.7
20211207234534 34 288 0.0 0.0 0.00 0.00 0.00 55 1024.6
20211207231638 35 288 0.0 0.0 0.00 0.00 0.00 51 1024.6
20211207230104 35 288 0.0 0.0 0.00 0.00 0.00 50 1024.4
20211207224558 36 288 0.0 0.0 0.00 0.00 0.00 48 1024.4
20211207221625 37 288 0.0 0.0 0.00 0.00 0.00 45 1024.3
20211207220050 38 288 0.0 0.0 0.00 0.00 0.00 44 1024.3
20211207214541 38 290 0.0 2.0 0.00 0.00 0.00 41 1024.2
20211207211653 39 15 0.0 1.0 0.00 0.00 0.00 40 1023.9
20211207210106 39 277 0.0 3.0 0.00 0.00 0.00 39 1024.3
20211207204539 40 337 1.0 2.0 0.00 0.00 0.00 38 1024.0
20211207203147 40 1 1.0 3.0 0.00 0.00 0.00 37 1024.2
20211207201635 40 319 0.0 3.0 0.00 0.00 0.00 40 1024.0
20211207200023 40 264 0.0 7.0 0.00 0.00 0.00 38 1024.2
20211207193131 40 255 5.0 10.0 0.00 0.00 0.00 38 1024.3
20211207191748 40 276 2.0 10.0 0.00 0.00 0.00 38 1024.3
20211207190040 40 294 4.0 7.0 0.00 0.00 0.00 41 1024.0
20211207184522 39 293 5.0 9.0 0.00 0.00 0.00 39 1024.1
20211207183020 39 292 2.0 7.0 0.00 0.00 0.00 41 1024.3
20211207181524 40 271 4.0 10.0 0.00 0.00 0.00 39 1024.8
20211207180211 40 316 3.0 8.0 0.00 0.00 0.00 44 1024.8
20211207174629 40 231 4.0 12.0 0.00 0.00 0.00 43 1025.1
20211207173010 39 305 4.0 10.0 0.00 0.00 0.00 45 1025.2
20211207170114 38 355 4.0 10.0 0.00 0.00 0.00 46 1025.7
20211207164518 38 296 6.0 11.0 0.00 0.00 0.00 47 1025.9
20211207163131 38 301 4.0 8.0 0.00 0.00 0.00 48 1026.1